Hourly Data Report for June 11, 2021

ATIKOKAN (AUT)
ONTARIO
Current Station Operator: ECCC - MSC

48°45'40.000" N
91°37'41.000" W
389.30 m
6020LPQ
71747
WCH

Download Data

Hourly Data (June 2021)
Hourly Data Report for June 11, 2021
TIME
LST
Temp Definition
°C
Dew Point Definition
°C
Rel Hum Definition
%
Precip. Amount Definition
mm

Wind Dir Definition
10's deg

Wind Spd Definition
km/h
Visibility Definition
km
Stn Press Definition
kPa
Hmdx Definition


Wind Chill Definition


Weather Definition


00:00 16.6 14.6 88 0.0 10 10   96.76     LegendNANA
01:00 15.8 14.0 89 0.0 9 11   96.74     LegendNANA
02:00 15.4 13.6 89 0.0 10 11   96.74     LegendNANA
03:00 15.2 13.5 90 0.0 11 11   96.71     LegendNANA
04:00 15.2 13.5 90 0.0 9 10   96.65     LegendNANA
05:00 15.0 13.5 90 0.0 9 12   96.59     LegendNANA
06:00 15.4 13.6 89 0.0 10 16   96.56     LegendNANA
07:00 15.8 13.7 87 0.0 12 12   96.59     LegendNANA
08:00 16.1 13.4 84 0.0 11 15   96.61     LegendNANA
09:00 16.7 13.4 81 0.0 13 13   96.63     LegendNANA
10:00 14.5 13.9 97 13.1 12 17   96.62     LegendNANA
11:00 14.4 14.1 98 27.1 11 10   96.66     LegendNANA
12:00 14.9 14.3 96 0.0 11 9   96.63     LegendNANA
13:00 17.1 15.4 89 0.0 12 16   96.40     LegendNANA
14:00 16.6 14.6 88 0.0 13 15   96.27     LegendNANA
15:00 16.8 14.6 87 0.0 15 5   96.46     LegendNANA
16:00 17.8 15.3 86 0.0 12 11   96.47     LegendNANA
17:00 17.2 14.9 87 0.0 12 12   96.46     LegendNANA
18:00 16.4 14.7 89 0.0 11 12   96.41     LegendNANA
19:00 16.3 14.7 90 0.0 12 10   96.41     LegendNANA
20:00 15.8 14.4 91 0.0 13 7   96.44     LegendNANA
21:00 15.5 14.2 92 0.0 13 7   96.52     LegendNANA
22:00 14.9 14.2 95 0.0 15 9   96.56     LegendNANA
23:00 14.8 14.3 97 0.0 14 6   96.55     LegendNANA

Notes on Data Quality.

Legend

  • E = Estimated
  • M = Missing
  • NA = Not Available*
  • [empty] = Indicates an unobserved value
Date modified: